RH
80 94 96 90 82 84 83 90 94 100 95 89 98 95 92 84 84 88 89 94 94 95 93 95 98 100 99 91 96 93 92 89 88 87 78 54 93 98
100 100 95 94 92 84 82 80 80 90 99 99 96 97 94 92 88 92 94 90 89 92 92 94 95 97 99 95 92 90 88 77 48 30 29 58 95 95
96 99 99 97 96 89 85 86 86 84 89 98 100 96 92 95 88 85 89 97 99 99 99 92 98 96 93 91 80 68 52 26 16 14 31 95 99 100
80 99 99 99 98 91 91 91 88 86 91 98 94 88 80 79 84 90 97 95 99 97 91 92 94 88 78 68 40 14 12 10 8 14 20 29 54 66
100 99 100 100 98 97 93 90 88 86 86 83 82 82 84 88 94 92 93 91 88 86 89 85 82 56 21 12 10 9 8 16 27 32 33 33 32 33
99 100 95 99 99 95 91 88 88 89 85 85 84 85 89 90 90 89 92 86 79 74 42 19 15 11 10 8 10 14 27 35 34 33 33 35 36 38
100 100 99 98 93 93 92 92 89 86 87 86 87 89 89 89 88 80 72 45 21 15 14 12 9 8 10 17 27 35 35 34 35 36 36 38 38 37
98 97 95 96 95 96 94 90 87 88 87 83 83 80 64 47 27 16 16 18 35 12 11 12 10 18 32 36 35 33 35 36 37 37 37 37 37 39
96 98 98 97 97 93 89 87 85 82 58 26 13 12 12 12 14 15 16 14 14 20 14 20 33 39 37 36 35 35 33 32 34 35 37 37 39 38
97 99 100 94 90 86 73 41 17 10 8 7 8 9 10 12 13 14 14 15 18 20 29 44 43 42 39 38 35 33 31 33 33 31 32 32 32 33
100 97 92 84 54 18 9 7 6 6 7 8 8 9 11 11 13 14 16 19 44 45 45 48 46 43 41 38 35 36 37 42 44 46 46 44 45 42
91 76 30 12 9 6 6 7 8 8 9 10 11 12 14 14 15 16 18 26 46 56 50 52 47 48 46 43 43 40 38 38 46 49 51 55 53 50
25 12 10 7 7 8 8 8 9 10 10 12 14 16 16 16 17 20 24 42 49 53 55 54 52 52 52 50 46 48 50 52 59 60 58 58 57 48
10 9 8 8 8 8 8 8 9 10 11 12 14 15 17 19 22 27 39 48 51 53 56 57 58 57 59 57 52 55 56 57 59 60 60 59 59 62
9 8 9 9 10 9 8 8 9 11 12 14 15 17 20 21 26 38 47 51 53 56 58 60 61 63 67 68 64 59 61 57 65 66 69 66 65 64
8 8 10 11 10 10 9 10 11 12 13 15 17 20 20 24 31 43 49 51 53 56 60 64 69 70 70 72 75 62 64 73 66 69 71 67 69 67
9 10 10 12 12 12 11 11 11 11 12 14 15 18 23 26 30 42 48 53 57 60 65 74 75 76 76 75 73 66 65 64 69 70 74 70 68 71
9 9 11 12 13 13 12 11 11 11 12 12 13 15 18 20 21 31 43 53 59 64 68 73 75 75 74 70 65 61 65 70 71 76 78 85 65 68
9 8 9 12 13 12 13 13 12 12 13 13 14 15 17 18 20 24 23 23 27 30 38 51 60 62 65 70 71 62 60 64 80 85 85 88 82 66
13 9 10 10 11 11 12 13 14 14 14 15 15 16 17 19 20 22 25 27 28 28 27 28 32 37 47 56 62 40 55 74 86 86 82 82 82 74
15 15 11 8 9 11 12 12 13 14 16 17 18 18 19 20 20 22 24 26 28 38 34 30 37 40 42 46 48 45 57 77 88 88 81 83 83 80
15 15 15 13 10 9 10 11 12 13 14 16 18 20 22 23 24 26 28 30 32 36 36 36 38 41 44 52 56 66 76 76 77 78 77 80 86 97
17 16 15 16 16 13 11 10 10 12 13 15 17 19 22 24 27 30 33 37 41 44 46 48 51 54 59 68 82 87 79 72 72 72 70 72 72 70
Wind_Speed
26 26 25 23 20 19 18 18 20 16 17 19 18 17 16 18 16 16 15 14 14 15 17 19 21 25 25 24 23 21 21 21 21 19 17 14 11 9
25 25 25 23 22 20 18 18 19 17 18 17 17 18 16 15 16 15 14 15 16 18 18 18 18 20 21 18 18 18 17 17 18 17 15 13 10 11
25 26 24 25 21 20 18 20 19 17 18 19 18 16 14 15 16 18 17 17 16 17 17 18 17 16 17 17 17 16 17 17 17 17 15 10 10 9
23 27 24 21 22 21 21 19 19 17 16 16 14 14 15 17 17 16 15 13 12 13 15 15 15 16 17 17 17 17 17 17 17 15 14 13 11 10
21 22 20 22 22 20 19 19 15 14 15 15 15 14 14 14 14 11 11 10 13 17 17 18 17 16 17 17 17 18 16 13 10 9 10 11 12 13
25 22 22 21 18 18 16 14 15 15 14 14 14 14 13 11 11 11 13 13 15 15 15 16 16 17 17 16 14 12 10 9 9 10 11 12 14 15
22 20 19 17 16 15 15 14 14 14 13 12 12 12 12 11 11 12 12 13 15 15 16 17 15 15 14 11 9 9 9 9 11 12 14 15 16 16
17 16 16 15 15 14 14 12 11 11 10 11 11 11 12 12 12 12 13 12 9 14 13 12 13 10 8 8 9 9 10 12 14 16 16 15 13 13
13 12 13 13 13 13 13 11 10 9 10 10 10 12 12 12 13 13 12 12 12 14 11 9 7 8 8 9 10 11 13 14 15 13 12 14 17 19
13 13 12 12 13 11 10 9 9 9 10 10 11 12 12 11 11 11 10 10 10 9 7 6 8 9 10 11 12 12 11 8 7 11 13 17 19 21
13 13 13 12 11 9 8 8 8 9 9 10 11 11 11 10 9 9 7 7 5 6 7 8 9 8 11 13 12 9 8 6 11 15 18 19 23 24
14 13 12 10 8 7 7 8 8 8 8 8 8 8 8 7 8 7 7 7 7 6 8 7 8 10 6 9 10 9 13 17 19 19 19 26 25 25
12 11 10 8 7 7 7 7 7 7 7 7 7 8 7 8 7 7 7 8 9 10 13 12 11 12 11 14 14 15 18 16 17 21 22 22 22 19
10 10 8 7 6 6 6 5 6 6 6 6 7 7 7 7 7 8 9 10 11 12 13 14 15 14 15 17 18 17 18 20 20 20 18 15 19 25
10 9 8 7 6 5 5 5 4 5 6 6 6 7 7 8 9 10 11 12 12 12 13 14 15 15 17 19 21 23 25 24 22 15 23 26 25 22
10 10 8 7 6 6 5 5 5 6 6 6 7 8 9 9 11 12 12 13 14 13 14 14 16 17 18 21 23 24 25 25 25 25 24 26 27 24
11 10 9 8 7 7 6 6 6 6 6 7 8 8 9 11 11 13 14 14 15 15 15 15 16 18 20 21 25 25 25 27 25 25 23 25 27 27
13 12 11 10 9 8 8 8 8 8 8 8 9 10 11 11 12 13 14 15 16 16 17 17 19 20 21 22 22 22 22 25 23 20 27 28 28 26
15 14 13 12 11 11 10 10 10 9 9 9 10 11 12 12 13 14 14 15 17 17 17 18 19 20 21 22 22 23 23 24 27 27 27 27 28 29
19 17 16 14 14 13 13 12 12 12 11 11 12 12 13 14 15 15 15 15 16 17 17 17 17 19 21 23 26 29 25 27 27 27 26 28 29 27
22 19 18 18 17 15 14 15 14 14 14 13 13 14 14 15 16 16 17 17 17 17 18 18 18 21 24 27 31 31 27 25 28 28 25 27 29 30
24 23 22 21 20 18 17 17 17 16 16 16 16 16 16 17 17 17 18 18 19 20 21 20 19 20 23 25 29 30 30 26 23 25 23 21 23 26
26 25 25 24 22 22 21 20 19 18 18 18 18 17 18 18 17 18 19 19 20 20 21 22 21 21 23 24 26 29 29 28 25 25 23 19 19 21
Wind_Direction
259 254 253 253 259 258 267 267 266 270 275 273 256 270 264 272 276 276 262 264 261 260 264 263 263 262 263 267 271 276 274 276 280 281 283 285 290 288
255 254 254 251 251 252 264 277 269 262 264 262 265 258 264 263 266 264 267 267 270 264 259 263 267 267 273 275 279 278 280 281 282 282 279 278 286 279
250 253 252 254 247 249 263 277 272 259 262 260 253 255 260 263 269 270 266 262 265 263 263 269 275 277 280 280 281 280 277 276 277 274 272 280 274 279
250 251 241 245 248 253 263 262 264 258 251 250 255 255 265 265 266 270 264 268 263 269 273 276 279 282 277 278 277 277 277 277 276 273 272 270 273 280
235 255 236 246 254 252 254 259 249 249 254 253 256 255 258 258 260 264 268 269 274 274 275 274 274 274 274 274 276 278 279 275 270 267 270 275 277 276
242 249 255 248 246 253 243 244 253 253 244 249 250 248 245 249 251 259 266 267 271 273 272 272 274 274 275 276 274 266 260 257 264 269 273 276 283 286
239 239 237 240 245 243 247 238 237 239 238 237 237 239 244 247 250 260 263 272 276 276 277 279 279 280 277 271 256 250 253 260 265 271 276 278 277 279
240 238 238 235 230 231 231 232 229 223 224 230 236 241 247 252 260 263 267 272 274 282 278 278 283 273 261 255 256 257 261 269 273 275 278 278 281 289
226 221 223 213 214 218 221 220 220 221 230 239 246 249 260 262 266 266 266 271 270 274 283 277 255 257 261 265 264 271 276 274 272 274 277 288 294 296
210 213 206 205 199 200 205 212 224 237 245 250 254 260 262 264 265 265 268 270 273 274 257 255 248 258 270 273 277 279 275 260 268 285 290 292 295 295
202 195 191 191 194 205 220 236 249 259 264 265 265 267 268 270 267 267 263 262 257 259 245 266 270 268 276 277 274 269 236 295 292 292 289 287 294 294
189 187 189 195 210 226 240 254 261 267 271 269 270 269 271 272 264 259 252 235 233 262 260 255 275 293 295 278 273 258 250 285 295 289 284 290 290 288
192 196 202 209 228 248 251 253 264 269 268 266 267 267 265 265 258 250 238 233 242 247 268 277 283 288 284 282 281 277 280 286 289 293 289 285 284 283
205 209 218 227 246 247 254 259 258 261 263 266 267 267 262 257 252 246 243 251 259 262 267 277 284 286 286 291 295 298 298 301 305 304 292 275 276 288
214 220 228 238 243 251 255 264 264 259 263 267 269 265 260 259 258 255 260 264 266 271 274 274 277 281 286 290 295 300 305 309 310 306 299 295 293 290
221 227 233 237 242 247 254 257 259 264 267 266 266 267 267 265 264 265 267 270 273 275 275 277 279 282 286 291 293 297 303 302 305 305 301 297 296 296
227 231 236 240 247 252 258 261 264 267 266 265 266 267 269 272 272 270 273 277 279 282 282 280 278 281 283 287 290 297 301 299 304 304 297 299 296 296
236 238 241 243 246 253 258 260 263 267 268 269 268 268 269 274 280 277 278 280 281 282 284 286 288 291 292 293 291 296 292 296 299 297 306 307 301 302
239 240 243 244 249 255 257 260 264 267 268 269 270 272 274 277 280 283 285 284 283 285 285 286 289 293 295 292 297 298 298 303 305 306 307 303 299 299
242 242 243 248 252 254 257 259 262 265 267 267 270 272 275 278 280 283 284 285 288 289 289 291 292 293 290 292 291 295 298 301 303 304 306 302 297 297
247 245 246 250 253 255 258 260 261 263 266 268 270 273 275 277 281 284 286 288 290 290 293 296 293 291 293 293 294 304 310 310 306 306 310 304 303 304
247 248 249 251 253 256 258 261 263 264 267 269 270 273 275 277 281 283 284 286 289 291 293 295 294 292 291 291 296 301 307 310 307 302 302 298 294 288
251 250 251 253 253 256 258 261 264 265 266 266 268 271 274 278 280 282 284 286 287 289 291 294 295 295 294 294 297 301 307 312 315 309 305 309 305 298